User: anonymous   Login
Location: Unspecified
(0.0000°N, 0.0000°E)
Time: 12:37:35
(UTC+00:00)
Language:

TDS 1 - Orbit

View from above orbital plane
View from above orbital plane
View from above satellite
View from above satellite

Ground track
Ground track

The orbit data is extracted from the following two-line orbital elements,

1 40076U 14037H   18200.94962308  .00000036  00000-0  11939-4 0  9990
2 40076  98.3730 333.6344 0005022 233.4644 126.6099 14.81423550217916
Epoch (UTC): 19 July 2018 22:47:27
Eccentricity: 0.0005022
inclination: 98.3730°
perigee height: 621 km
apogee height: 628 km
right ascension of ascending node: 333.6344°
argument of perigee: 233.4644°
revolutions per day: 14.81423550
mean anomaly at epoch: 126.6099°
orbit number at epoch: 21791

The dashed part of the orbit path shows where the satellite is in the earth's shadow,  

DLR